SCP
0 0 0 0 0 0 0 0 0 0 0 0 0 0 0 0 0 0 0 0 0 0 0 0 0 0 0 0 0 0 0 0 0 0 0 0 0 0 0 0 0 0 0
0 0 0 0 0 0 0 0 0 0 0 0 0 0 0 0 0 0 0 0 0 0 0 0 0 0 0 0 0 0 0 0 0 0 0 0 0 0 0 0 0 0 0
0 0 0 0 0 0 0 0 0 0 0 0 0 0 0 0 0 0 0 0 0 0 0 0 0 0 0 0 0 0 0 0 0 0 0 0 0 0 0 0 0 0 0
0 0 0 0 0 0 0 0 0 0 0 0 0 0 0 0 0 0 0 0 0 0 0 0 0 0 0 0 0 0 0 0 0 0 0 0 0 0 0 0 0 0 0
0 0 0 0 0 0 0 0 0 0 0 0 0 0 0 0 0 0 0 0 0 0 0 0 0 0 0 0 0 0 0 0 0 0 0 0 0 0 0 0 0 0 0
0 0 0 0 0 0 0 0 0 0 0 0 0 0 0 0 0 0 0 0 0 0 0 0 0 0 0 0 0 0 0 0 0 0 0 0 0 0 0 0 0 0 0
0 0 0 0 0 0 0 0 0 0 0 0 0 0 0 0 0 0 0 0 0 0 0 0 0 0 0 0 0 0 0 0 0 0 0 0 0 0 0 0 0 0 0
0 0 0 0 0 0 0 0 0 0 0 0 0 0 0 0 0 0 0 0 0 0 0 0 0 0 0 0 0 0 0 0 0 0 0 0 0 0 0 0 0 0 0
0 0 0 0 0 0 0 0 0 0 0 0 0 0 0 0 0 0 0 0 0 0 0 0 0 0 0 0 0 0 0 0 0 0 0 0 0 0 0 0 0 0 0
0 0 0 0 0 0 0 0 0 0 0 0 0 0 0 0 0 0 0 0 0 0 0 0 0 0 0 0 0 0 0 0 0 0 0 0 0 0 0 0 0 0 0
0 0 0 0 0 0 0 0 0 0 0 0 0 0 0 0 0 0 0 0 0 0 0 0 0 0 0 0 0 0 0 0 0 0 0 0 0 0 0 0 0 0 0
0 0 0 0 0 0 0 0 0 0 0 0 0 0 0 0 0 0 0 0 0 0 0 0 0 0 0 0 0 0 0 0 0 0 0 0 0 0 0 0 0 0 0
0 0 0 0 0 0 0 0 0 0 0 0 0 0 0 0 0 0 0 0 0 0 0 0 0 0 0 0 0 0 0 0 0 0 0 0 0 0 0 0 0 0 0
0 0 0 0 0 0 0 0 0 0 0 0 0 0 0 0 0 0 0 0 0 0 0 0 0 0 0 0 0 0 0 0 0 0 0 0 0 0 0 0 0 0 0
0 0 0 0 0 0 0 0 0 0 0 0 0 0 0 0 0 0 0 0 0 0 0 0 0 0 0 0 0 0 0 0 0 0 0 0 0 0 0 0 0 0 0
0 0 0 0 0 0 0 0 0 0 0 0 0 0 0 0 0 0 0 0 0 0 0 0 0 0 0 0 0 0 0 0 0 0 0 0 0 0 0 0 0 0 0
0 0 0 0 0 0 0 0 0 0 0 0 0 0 0 0 0 0 0 0 0 0 0 0 0 0 0 0 0 0 0 0 0 0 0 0 0 0 0 0 0 0 0
0 0 0 0 0 0 0 0 0 0 0 0 0 0 0 0 0 0 0 0 0 0 0 0 0 0 0 0 0 0 0 0 0 0 0 0 0 0 0 0 0 0 0
0 0 0 0 0 0 0 0 0 0 0 0 0 0 0 0 0 0 0 0 0 0 0 0 0 0 0 0 0 0 0 0 0 0 0 0 0 0 0 0 0 0 0
0 0 0 0 0 0 0 0 0 0 0 0 0 0 0 0 0 0 0 0 0 0 0 0 0 0 0 0 0 0 0 0 0 0 0 0 0 0 0 0 0 0 0
0 0 0 0 0 0 0 0 0 0 0 0 0 0 0 0 0 0 0 0 0 0 0 0 0 0 0 0 0 0 0 0 0 0 0 0 0 0 0 0 0 0 0
0 0 0 0 0 0 0 0 0 0 0 0 0 0 0 0 0 0 0 0 0 0 0 0 0 0 0 0 0 0 0 0 0 0 0 0 0 0 0 0 0 0 0
0 0 0 0 0 0 0 0 0 0 0 0 0 0 0 0 0 0 0 0 0 0 0 0 0 0 0 0 0 0 0 0 0 0 0 0 0 0 0 0 0 0 0
0 0 0 0 0 0 0 0 0 0 0 0 0 0 0 0 0 0 0 0 0 0 0 0 0 0 0 0 0 0 0 0 0 0 0 0 0 0 0 0 0 0 0
0 0 0 0 0 0 0 0 0 0 0 0 0 0 0 0 0 0 0 0 0 0 0 0 0 0 0 0 0 0 0 0 0 0 0 0 0 0 0 0 0 0 0
0 0 0 0 0 0 0 0 0 0 0 0 0 0 0 0 0 0 0 0 0 0 0 0 0 0 0 0 0 0 0 0 0 0 0 0 0 0 0 0 0 0 0
Wind_Speed_500mb
27 36 45 53 60 67 70 70 68 68 66 69 68 71 76 80 81 90 84 82 80 83 85 81 73 65 58 51 45 39 34 26 23 21 28 31 33 35 34 33 35 40 43
27 32 38 45 55 63 68 67 67 64 61 64 70 74 76 84 89 90 85 82 84 87 87 82 76 69 61 54 46 37 27 22 22 29 31 33 34 33 32 35 40 43 46
35 37 39 45 53 60 64 62 63 62 59 62 66 70 73 79 83 87 84 83 86 88 85 80 73 66 61 53 42 30 25 25 27 28 30 32 34 33 34 36 39 44 48
42 44 50 51 56 57 58 59 58 60 62 62 65 66 67 74 82 82 83 82 82 82 77 74 70 64 55 44 33 31 30 30 25 32 32 35 34 35 35 36 38 43 52
56 53 53 59 59 57 58 58 54 56 60 58 62 64 65 70 77 83 86 74 78 76 72 67 60 53 45 36 32 34 31 29 33 34 38 37 34 35 36 39 45 51 57
55 57 55 58 58 57 57 58 57 54 60 62 63 64 65 69 78 84 81 79 80 78 72 67 59 54 44 32 33 34 32 31 39 38 44 40 38 40 42 45 50 54 60
59 58 55 55 57 55 54 56 58 55 57 61 62 63 63 67 76 81 86 85 81 76 71 68 70 60 42 29 31 34 41 42 42 45 48 43 45 47 50 51 55 59 65
50 47 47 52 53 53 53 54 57 53 54 58 61 60 60 61 68 76 83 74 76 75 70 70 69 63 38 28 37 52 54 47 51 49 51 47 50 55 57 58 60 65 70
44 43 41 42 45 49 50 50 52 52 56 58 57 57 57 57 64 70 73 77 76 74 72 69 70 54 34 42 58 57 59 55 54 55 54 53 59 61 60 63 65 61 70
35 35 34 33 34 38 37 41 43 46 51 53 53 51 52 52 57 68 70 77 76 72 74 72 70 64 58 62 58 59 66 64 60 66 61 56 59 59 58 59 63 61 63
31 30 29 28 27 27 28 33 33 37 40 43 44 43 45 45 50 58 64 75 78 76 78 80 78 71 68 67 63 62 68 72 75 74 68 68 63 59 59 54 51 55 56
20 20 19 21 21 20 21 22 24 27 29 31 32 32 33 32 38 51 61 73 72 71 76 76 72 74 72 69 63 69 68 69 75 77 70 69 68 64 59 55 53 54 56
11 11 11 13 14 15 14 15 18 20 23 25 28 27 28 28 35 48 56 60 61 66 69 71 72 76 64 65 63 77 76 67 71 71 69 62 60 61 60 58 56 57 58
12 11 11 11 11 12 14 15 14 12 11 15 17 21 22 24 31 44 55 53 53 59 64 70 74 69 78 80 86 87 81 67 67 68 64 62 61 62 58 59 57 56 57
14 15 16 16 16 16 15 13 13 11 7 4 6 10 12 14 17 32 46 53 58 58 60 62 69 71 81 89 85 86 76 66 65 66 63 62 60 58 56 55 52 52 57
17 19 19 18 16 14 11 10 10 9 11 12 11 10 9 9 13 18 30 42 47 50 60 70 76 79 79 80 81 79 70 61 57 57 58 57 54 53 50 48 52 53 54
18 19 18 17 15 11 9 6 6 8 8 9 10 11 11 13 19 21 24 30 39 48 61 66 71 72 77 72 68 67 64 58 56 55 55 53 48 46 49 50 50 52 52
20 17 15 13 10 7 5 6 5 5 6 8 7 8 11 13 18 20 22 28 37 45 52 59 68 67 66 62 59 58 60 61 56 51 47 45 47 47 47 48 48 49 48
24 19 13 11 8 8 7 8 9 9 10 16 15 16 17 20 24 26 30 36 42 46 55 58 62 61 55 49 49 49 48 48 46 45 46 48 47 45 44 42 43 44 42
22 18 15 11 11 11 10 11 13 14 15 19 16 20 18 26 23 21 24 28 36 43 43 46 50 54 52 48 47 45 44 44 47 47 47 47 44 42 39 37 38 38 38
21 19 16 14 14 13 14 13 16 17 18 19 21 23 27 28 34 30 30 33 36 38 40 43 45 47 48 48 48 49 50 49 48 47 46 44 41 38 35 35 36 36 35
16 15 15 13 13 14 14 15 17 17 18 21 23 27 31 31 34 38 40 43 44 46 48 49 51 52 53 53 53 51 48 48 47 45 45 42 39 35 36 37 36 35 33
13 11 9 8 9 13 14 15 16 19 22 25 28 31 34 38 38 41 44 47 49 49 49 50 51 51 51 49 49 50 49 47 47 46 43 41 38 37 38 38 36 34 33
9 7 7 6 10 13 15 18 21 25 29 33 37 40 42 44 45 46 49 51 52 52 52 51 50 50 51 52 53 51 48 46 46 44 44 44 40 40 41 40 36 36 35
8 6 6 9 12 16 19 23 27 31 35 38 41 43 46 47 48 48 49 50 51 52 53 53 53 53 54 54 53 51 48 48 48 47 47 46 44 43 43 40 38 38 38
5 8 11 15 20 25 29 33 36 39 42 45 47 49 50 51 51 52 53 54 55 56 56 55 53 51 52 52 52 51 50 49 49 48 49 49 47 45 43 40 39 40 41
Wind_Direction_500mb
253 253 250 247 243 242 241 244 246 245 240 232 230 233 237 232 235 235 229 233 228 225 223 225 227 225 223 219 217 213 213 218 224 233 254 257 255 260 267 276 286 291 299
271 265 260 253 246 242 243 247 249 246 242 236 240 239 242 237 236 229 228 230 225 223 223 224 220 218 213 213 209 202 219 222 254 261 254 261 262 267 275 284 289 294 300
273 269 267 260 253 247 245 247 251 247 243 241 241 243 248 244 236 232 229 226 226 227 225 224 221 213 210 207 201 211 215 239 243 252 258 265 269 273 277 284 292 300 304
266 271 270 266 263 257 252 250 254 249 245 241 245 248 249 240 236 235 230 230 229 225 221 221 218 213 208 200 206 224 235 236 246 248 253 262 265 273 281 289 295 302 306
266 266 268 262 261 260 256 254 258 253 247 248 248 249 246 242 239 233 234 228 226 222 219 217 214 206 200 205 230 241 232 239 247 246 260 260 266 273 284 292 297 301 305
268 269 267 264 262 262 259 256 253 256 246 246 249 252 251 248 240 235 232 224 225 223 223 215 206 203 207 223 253 229 235 245 245 258 258 263 271 279 285 290 295 302 302
274 273 269 265 263 263 260 255 253 258 248 248 250 254 256 251 248 239 225 224 225 220 222 215 207 207 216 260 249 243 249 240 247 259 262 269 277 283 286 290 295 297 298
273 271 268 264 261 260 256 250 250 252 252 252 249 250 256 255 250 241 233 223 223 229 229 218 213 214 222 270 283 285 250 238 248 257 270 273 281 283 286 291 293 295 296
271 271 267 262 259 257 254 251 250 248 250 254 256 254 252 253 252 244 232 222 229 227 226 217 214 216 245 266 278 279 251 245 252 257 262 269 275 284 290 292 292 297 297
269 267 263 259 253 253 251 248 248 247 247 250 255 257 257 254 248 246 233 227 225 225 224 217 221 226 240 255 276 274 258 252 253 256 262 275 274 276 281 282 286 284 289
267 265 264 258 250 243 242 245 247 247 246 250 255 257 260 260 253 249 240 221 220 221 225 226 227 236 245 256 271 283 275 266 267 261 264 270 280 283 281 282 283 287 286
267 267 262 253 250 244 240 240 242 242 243 249 254 255 260 260 254 245 235 216 220 226 232 232 239 245 247 269 267 279 286 276 270 266 269 273 278 283 289 291 291 291 287
241 235 232 232 222 214 207 213 222 224 231 237 242 247 251 251 240 226 219 224 218 230 234 242 246 253 258 268 276 282 287 273 266 263 270 275 279 282 285 289 292 291 289
223 204 192 189 193 194 189 188 199 211 236 249 257 258 259 254 239 220 213 216 229 233 238 243 247 248 261 265 271 275 280 268 265 261 264 265 268 275 281 287 288 288 290
191 169 157 154 155 161 161 157 154 156 163 229 271 274 269 261 250 232 225 222 229 238 246 248 254 258 259 270 272 279 275 266 258 256 258 262 270 277 283 285 286 290 294
158 146 138 135 135 138 145 144 152 178 205 216 222 229 224 228 234 231 236 236 238 244 249 253 257 261 265 272 274 275 273 269 259 254 260 268 272 275 276 278 284 289 290
150 140 138 133 131 136 138 152 174 196 209 224 228 227 233 238 239 237 230 231 238 246 250 256 258 259 266 265 262 264 266 263 259 260 265 266 267 269 276 283 288 290 291
147 142 133 121 118 128 151 187 198 202 217 243 244 250 259 254 255 241 234 237 241 242 246 248 254 260 263 263 259 255 254 258 261 260 260 262 268 274 278 282 285 287 292
152 141 140 144 152 164 187 214 224 232 241 256 256 256 264 266 262 261 257 243 245 246 246 248 255 261 266 264 258 256 255 255 255 257 263 268 271 274 278 282 285 288 292
160 160 170 187 198 211 214 238 250 254 255 257 268 266 272 276 279 274 265 257 251 253 259 258 257 260 264 264 263 260 256 257 261 264 267 269 271 275 278 281 284 288 293
179 186 197 205 223 234 242 250 258 260 267 276 279 283 274 270 273 278 272 270 267 266 268 268 267 265 264 262 262 262 263 262 263 265 267 269 272 275 278 282 284 286 289
193 202 208 216 235 247 255 260 268 278 285 289 291 289 289 284 279 278 277 276 274 274 273 270 268 265 264 264 264 264 265 266 266 266 266 268 270 272 276 278 280 283 286
209 213 224 237 256 266 273 281 289 295 299 298 296 293 289 286 282 279 278 277 277 276 275 273 272 271 271 272 272 270 269 267 265 264 265 267 268 271 273 274 276 278 279
215 214 224 243 263 275 285 289 294 297 297 295 293 290 287 285 284 283 282 281 281 281 280 279 278 278 276 275 273 270 268 266 264 262 264 265 266 267 268 270 270 273 275
205 224 256 274 286 293 298 302 304 302 299 296 293 291 289 287 286 285 283 282 282 282 281 280 278 276 274 272 270 269 267 264 263 263 263 264 264 264 265 266 267 268 268
287 301 304 304 303 304 305 304 301 298 294 293 291 288 287 287 286 286 285 284 283 281 280 279 276 274 272 271 270 269 268 265 264 264 263 263 262 262 263 264 264 264 266
Wind_Speed_850mb
27 36 45 53 60 67 70 70 68 68 66 69 68 71 76 80 81 90 84 82 80 83 85 81 73 65 58 51 45 39 34 26 23 21 28 31 33 35 34 33 35 40 43
27 32 38 45 55 63 68 67 67 64 61 64 70 74 76 84 89 90 85 82 84 87 87 82 76 69 61 54 46 37 27 22 22 29 31 33 34 33 32 35 40 43 46
35 37 39 45 53 60 64 62 63 62 59 62 66 70 73 79 83 87 84 83 86 88 85 80 73 66 61 53 42 30 25 25 27 28 30 32 34 33 34 36 39 44 48
42 44 50 51 56 57 58 59 58 60 62 62 65 66 67 74 82 82 83 82 82 82 77 74 70 64 55 44 33 31 30 30 25 32 32 35 34 35 35 36 38 43 52
56 53 53 59 59 57 58 58 54 56 60 58 62 64 65 70 77 83 86 74 78 76 72 67 60 53 45 36 32 34 31 29 33 34 38 37 34 35 36 39 45 51 57
55 57 55 58 58 57 57 58 57 54 60 62 63 64 65 69 78 84 81 79 80 78 72 67 59 54 44 32 33 34 32 31 39 38 44 40 38 40 42 45 50 54 60
59 58 55 55 57 55 54 56 58 55 57 61 62 63 63 67 76 81 86 85 81 76 71 68 70 60 42 29 31 34 41 42 42 45 48 43 45 47 50 51 55 59 65
50 47 47 52 53 53 53 54 57 53 54 58 61 60 60 61 68 76 83 74 76 75 70 70 69 63 38 28 37 52 54 47 51 49 51 47 50 55 57 58 60 65 70
44 43 41 42 45 49 50 50 52 52 56 58 57 57 57 57 64 70 73 77 76 74 72 69 70 54 34 42 58 57 59 55 54 55 54 53 59 61 60 63 65 61 70
35 35 34 33 34 38 37 41 43 46 51 53 53 51 52 52 57 68 70 77 76 72 74 72 70 64 58 62 58 59 66 64 60 66 61 56 59 59 58 59 63 61 63
31 30 29 28 27 27 28 33 33 37 40 43 44 43 45 45 50 58 64 75 78 76 78 80 78 71 68 67 63 62 68 72 75 74 68 68 63 59 59 54 51 55 56
20 20 19 21 21 20 21 22 24 27 29 31 32 32 33 32 38 51 61 73 72 71 76 76 72 74 72 69 63 69 68 69 75 77 70 69 68 64 59 55 53 54 56
11 11 11 13 14 15 14 15 18 20 23 25 28 27 28 28 35 48 56 60 61 66 69 71 72 76 64 65 63 77 76 67 71 71 69 62 60 61 60 58 56 57 58
12 11 11 11 11 12 14 15 14 12 11 15 17 21 22 24 31 44 55 53 53 59 64 70 74 69 78 80 86 87 81 67 67 68 64 62 61 62 58 59 57 56 57
14 15 16 16 16 16 15 13 13 11 7 4 6 10 12 14 17 32 46 53 58 58 60 62 69 71 81 89 85 86 76 66 65 66 63 62 60 58 56 55 52 52 57
17 19 19 18 16 14 11 10 10 9 11 12 11 10 9 9 13 18 30 42 47 50 60 70 76 79 79 80 81 79 70 61 57 57 58 57 54 53 50 48 52 53 54
18 19 18 17 15 11 9 6 6 8 8 9 10 11 11 13 19 21 24 30 39 48 61 66 71 72 77 72 68 67 64 58 56 55 55 53 48 46 49 50 50 52 52
20 17 15 13 10 7 5 6 5 5 6 8 7 8 11 13 18 20 22 28 37 45 52 59 68 67 66 62 59 58 60 61 56 51 47 45 47 47 47 48 48 49 48
24 19 13 11 8 8 7 8 9 9 10 16 15 16 17 20 24 26 30 36 42 46 55 58 62 61 55 49 49 49 48 48 46 45 46 48 47 45 44 42 43 44 42
22 18 15 11 11 11 10 11 13 14 15 19 16 20 18 26 23 21 24 28 36 43 43 46 50 54 52 48 47 45 44 44 47 47 47 47 44 42 39 37 38 38 38
21 19 16 14 14 13 14 13 16 17 18 19 21 23 27 28 34 30 30 33 36 38 40 43 45 47 48 48 48 49 50 49 48 47 46 44 41 38 35 35 36 36 35
16 15 15 13 13 14 14 15 17 17 18 21 23 27 31 31 34 38 40 43 44 46 48 49 51 52 53 53 53 51 48 48 47 45 45 42 39 35 36 37 36 35 33
13 11 9 8 9 13 14 15 16 19 22 25 28 31 34 38 38 41 44 47 49 49 49 50 51 51 51 49 49 50 49 47 47 46 43 41 38 37 38 38 36 34 33
9 7 7 6 10 13 15 18 21 25 29 33 37 40 42 44 45 46 49 51 52 52 52 51 50 50 51 52 53 51 48 46 46 44 44 44 40 40 41 40 36 36 35
8 6 6 9 12 16 19 23 27 31 35 38 41 43 46 47 48 48 49 50 51 52 53 53 53 53 54 54 53 51 48 48 48 47 47 46 44 43 43 40 38 38 38
5 8 11 15 20 25 29 33 36 39 42 45 47 49 50 51 51 52 53 54 55 56 56 55 53 51 52 52 52 51 50 49 49 48 49 49 47 45 43 40 39 40 41
Wind_Direction_850mb
253 253 250 247 243 242 241 244 246 245 240 232 230 233 237 232 235 235 229 233 228 225 223 225 227 225 223 219 217 213 213 218 224 233 254 257 255 260 267 276 286 291 299
271 265 260 253 246 242 243 247 249 246 242 236 240 239 242 237 236 229 228 230 225 223 223 224 220 218 213 213 209 202 219 222 254 261 254 261 262 267 275 284 289 294 300
273 269 267 260 253 247 245 247 251 247 243 241 241 243 248 244 236 232 229 226 226 227 225 224 221 213 210 207 201 211 215 239 243 252 258 265 269 273 277 284 292 300 304
266 271 270 266 263 257 252 250 254 249 245 241 245 248 249 240 236 235 230 230 229 225 221 221 218 213 208 200 206 224 235 236 246 248 253 262 265 273 281 289 295 302 306
266 266 268 262 261 260 256 254 258 253 247 248 248 249 246 242 239 233 234 228 226 222 219 217 214 206 200 205 230 241 232 239 247 246 260 260 266 273 284 292 297 301 305
268 269 267 264 262 262 259 256 253 256 246 246 249 252 251 248 240 235 232 224 225 223 223 215 206 203 207 223 253 229 235 245 245 258 258 263 271 279 285 290 295 302 302
274 273 269 265 263 263 260 255 253 258 248 248 250 254 256 251 248 239 225 224 225 220 222 215 207 207 216 260 249 243 249 240 247 259 262 269 277 283 286 290 295 297 298
273 271 268 264 261 260 256 250 250 252 252 252 249 250 256 255 250 241 233 223 223 229 229 218 213 214 222 270 283 285 250 238 248 257 270 273 281 283 286 291 293 295 296
271 271 267 262 259 257 254 251 250 248 250 254 256 254 252 253 252 244 232 222 229 227 226 217 214 216 245 266 278 279 251 245 252 257 262 269 275 284 290 292 292 297 297
269 267 263 259 253 253 251 248 248 247 247 250 255 257 257 254 248 246 233 227 225 225 224 217 221 226 240 255 276 274 258 252 253 256 262 275 274 276 281 282 286 284 289
267 265 264 258 250 243 242 245 247 247 246 250 255 257 260 260 253 249 240 221 220 221 225 226 227 236 245 256 271 283 275 266 267 261 264 270 280 283 281 282 283 287 286
267 267 262 253 250 244 240 240 242 242 243 249 254 255 260 260 254 245 235 216 220 226 232 232 239 245 247 269 267 279 286 276 270 266 269 273 278 283 289 291 291 291 287
241 235 232 232 222 214 207 213 222 224 231 237 242 247 251 251 240 226 219 224 218 230 234 242 246 253 258 268 276 282 287 273 266 263 270 275 279 282 285 289 292 291 289
223 204 192 189 193 194 189 188 199 211 236 249 257 258 259 254 239 220 213 216 229 233 238 243 247 248 261 265 271 275 280 268 265 261 264 265 268 275 281 287 288 288 290
191 169 157 154 155 161 161 157 154 156 163 229 271 274 269 261 250 232 225 222 229 238 246 248 254 258 259 270 272 279 275 266 258 256 258 262 270 277 283 285 286 290 294
158 146 138 135 135 138 145 144 152 178 205 216 222 229 224 228 234 231 236 236 238 244 249 253 257 261 265 272 274 275 273 269 259 254 260 268 272 275 276 278 284 289 290
150 140 138 133 131 136 138 152 174 196 209 224 228 227 233 238 239 237 230 231 238 246 250 256 258 259 266 265 262 264 266 263 259 260 265 266 267 269 276 283 288 290 291
147 142 133 121 118 128 151 187 198 202 217 243 244 250 259 254 255 241 234 237 241 242 246 248 254 260 263 263 259 255 254 258 261 260 260 262 268 274 278 282 285 287 292
152 141 140 144 152 164 187 214 224 232 241 256 256 256 264 266 262 261 257 243 245 246 246 248 255 261 266 264 258 256 255 255 255 257 263 268 271 274 278 282 285 288 292
160 160 170 187 198 211 214 238 250 254 255 257 268 266 272 276 279 274 265 257 251 253 259 258 257 260 264 264 263 260 256 257 261 264 267 269 271 275 278 281 284 288 293
179 186 197 205 223 234 242 250 258 260 267 276 279 283 274 270 273 278 272 270 267 266 268 268 267 265 264 262 262 262 263 262 263 265 267 269 272 275 278 282 284 286 289
193 202 208 216 235 247 255 260 268 278 285 289 291 289 289 284 279 278 277 276 274 274 273 270 268 265 264 264 264 264 265 266 266 266 266 268 270 272 276 278 280 283 286
209 213 224 237 256 266 273 281 289 295 299 298 296 293 289 286 282 279 278 277 277 276 275 273 272 271 271 272 272 270 269 267 265 264 265 267 268 271 273 274 276 278 279
215 214 224 243 263 275 285 289 294 297 297 295 293 290 287 285 284 283 282 281 281 281 280 279 278 278 276 275 273 270 268 266 264 262 264 265 266 267 268 270 270 273 275
205 224 256 274 286 293 298 302 304 302 299 296 293 291 289 287 286 285 283 282 282 282 281 280 278 276 274 272 270 269 267 264 263 263 263 264 264 264 265 266 267 268 268
287 301 304 304 303 304 305 304 301 298 294 293 291 288 287 287 286 286 285 284 283 281 280 279 276 274 272 271 270 269 268 265 264 264 263 263 262 262 263 264 264 264 266